This is the latest recevied weather packets stored in our database for station/object SQ9IWE-13. If no packets are shown the sender has not sent any weather packets the latest 10 day(s).
| Time | Temp. | Humidity | Pressure | Rain* | Wind** | Luminosity | Snow |
|---|---|---|---|---|---|---|---|
| 1777435801 | 1.67° C | 71% | 1023.4 hPa | - | - | - | - |
| 1777435201 | 1.11° C | 71% | 1023.4 hPa | - | - | - | - |
| 1777434601 | 1.11° C | 71% | 1023.4 hPa | - | - | - | - |
| 1777434001 | 1.11° C | 71% | 1023.4 hPa | - | - | - | - |
| 1777433401 | 0.56° C | 71% | 1023.4 hPa | - | - | - | - |
| 1777432801 | 0.56° C | 70% | 1023.4 hPa | - | - | - | - |
| 1777432201 | 0.56° C | 69% | 1023.5 hPa | - | - | - | - |
| 1777431601 | 0.56° C | 70% | 1023.4 hPa | - | - | - | - |
| 1777431001 | 0.56° C | 70% | 1023.7 hPa | - | - | - | - |
| 1777430401 | 0.56° C | 70% | 1023.4 hPa | - | - | - | - |
| 1777429801 | 1.11° C | 70% | 1023.4 hPa | - | - | - | - |
| 1777429201 | 1.11° C | 69% | 1023.5 hPa | - | - | - | - |
| 1777428601 | 1.11° C | 70% | 1023.5 hPa | - | - | - | - |
| 1777428001 | 0.56° C | 74% | 1023.5 hPa | - | - | - | - |
| 1777427401 | 0.56° C | 79% | 1023.4 hPa | - | - | - | - |
| 1777426801 | 0.56° C | 80% | 1023.2 hPa | - | - | - | - |
| 1777425601 | 0.56° C | 79% | 1023.2 hPa | - | - | - | - |
| 1777425001 | 1.11° C | 78% | 1023.1 hPa | - | - | - | - |
| 1777424401 | 1.11° C | 78% | 1023.1 hPa | - | - | - | - |
| 1777423801 | 1.11° C | 77% | 1023.1 hPa | - | - | - | - |
| 1777423201 | 1.11° C | 76% | 1023.1 hPa | - | - | - | - |
| 1777422601 | 1.11° C | 74% | 1023.1 hPa | - | - | - | - |
| 1777422001 | 1.67° C | 72% | 1023.2 hPa | - | - | - | - |
| 1777421401 | 1.67° C | 71% | 1023.2 hPa | - | - | - | - |
| 1777420801 | 1.67° C | 69% | 1023.2 hPa | - | - | - | - |
* Rain since midnight (hover to see other rain measurements)
** Current wind speed in m/s (hover to see current wind gust speed)